Prox-1
1 44339U 19036A   25027.60632641  .00016501  00000-0  23384-2 0  9991
2 44339  23.9957 212.4518 0008238   2.3435 357.7099 14.75387377298327
SONATE
1 44400U 19038Q   25027.98637796  .00068279  00000-0  96641-3 0  9995
2 44400  97.7103  41.4009 0011260  31.8179 328.3753 15.56209358308756
Taurus 1
1 44530U 19059C   25028.78296977  .00013265  00000-0  26233-2 0  9997
2 44530  98.5901 162.3703 0009649  83.1247 277.1051 14.62452456284652
Duchifat 3
1 44854U 19089C   25028.59326565  .00041999  00000-0  12997-2 0  9992
2 44854  36.9492 105.6654 0009976 179.8463 180.2293 15.32496828282595
TO-108
1 44881U 19093C   25028.79457454  .00002010  00000-0  24131-3 0  9996
2 44881  97.8069 107.1704 0012859 307.6719  52.3329 14.85057966276510
FloripaSat 1
1 44885U 19093G   25028.76253033  .00010349  00000-0  93125-3 0  9997
2 44885  97.8245 116.3126 0010505 287.4905  72.5167 14.95783420277021
RS-44
1 44909U 19096E   25027.88137775  .00000007  00000-0 -10443-4 0  9997
2 44909  82.5248 315.4647 0216375 245.7926 112.0426 12.79737938237718
UPMSat 2
1 46276U 20061E   25028.44367523  .00048137  00000-0  82455-3 0  9995
2 46276  97.2665 100.0794 0001251  63.2462 296.8918 15.51083201244879
AmicalSat
1 46287U 20061R   25010.85863821  .11283921  24654-5  56408-3 0  9994
2 46287  97.2840  89.8720 0009935 281.1985  78.8199 16.41970930241877
SALSAT
1 46495U 20068K   25027.87830504  .00012351  00000-0  58558-3 0  9991
2 46495  97.8451   0.2149 0010287 260.3296  99.6775 15.19404611238352
CubeSX-Sirius-HSE
1 47951U 21022V   25028.80037814  .00074807  00000-0  13402-2 0  9999
2 47951  97.4376 295.5280 0011622  60.4826 299.7582 15.49622400213194
CubeSX-HSE
1 47952U 21022W   25028.78542793  .00077850  00000-0  13762-2 0  9994
2 47952  97.4368 295.6804 0011618  59.4664 300.7733 15.49991068213204
KSU-Cubesat
1 47954U 21022Y   25028.79262148  .00169936  00000-0  16705-2 0  9997
2 47954  97.4359 299.2916 0009838  62.0756 298.1498 15.65419758213154
GRBAlpha
1 47959U 21022AD  25028.81028502  .00077897  00000-0  13820-2 0  9998
2 47959  97.4367 295.8706 0011606  60.4890 299.7517 15.49888387212039
Orbicraft-Zorkiy
1 47960U 21022AE  25028.78662765  .00103672  00000-0  13288-2 0  9990
2 47960  97.4364 298.6618 0010443  58.4600 301.7675 15.58755218212872
TUBIN
1 48900U 21059X   25028.80631448  .00042956  00000-0  86880-3 0  9998
2 48900  97.6635 188.8683 0005301   4.4956 355.6339 15.46323774199586
LEDSAT
1 49069U 21073D   25028.78864069  .00048686  00000-0  11110-2 0  9994
2 49069  97.4080 106.6033 0013113 197.1395 162.9411 15.42647232191002
CUTE
1 49263U 21088D   25028.45619258  .00054117  00000-0  13689-2 0  9997
2 49263  97.4687 101.4153 0009432   9.1502 350.9914 15.39547651184041
TeikyoSat 4
1 49396U 21102B   25028.36806156  .00003729  00000-0  25526-3 0  9993
2 49396  97.4309  71.5075 0011500 220.7231 139.3138 15.06630410176631
Z-Sat
1 49399U 21102E   25028.79185427  .00007987  00000-0  46072-3 0  9993
2 49399  97.4015  74.2746 0018244 196.2565 163.8083 15.12477461177041
KOSEN 1
1 49402U 21102H   25028.58743680  .00011249  00000-0  56516-3 0  9996
2 49402  97.3929  76.5855 0016879 174.8904 185.2506 15.17310296177254
HO-113
1 50466U 21131B   25028.80206528  .00001405  00000-0  45562-3 0  9992
2 50466  98.5158 118.8266 0004566 159.4043 200.7331 14.40489944162471
IRIS-A
1 51044U 22002BN  25028.17593225  .00075284  00000-0  11192-2 0  9993
2 51044  97.3499 102.6528 0003733 308.2191  51.8727 15.54906668169074
Foresail-1
1 52766U 22057AL  25027.94528295  .00068520  00000-0  10292-2 0  9999
2 52766  97.5969 168.3229 0005751  35.1251 325.0380 15.54639557149071
SNUGLITE 2
1 52899U 22065F   25028.27821628  .00002835  00000-0  56792-3 0  9991
2 52899  98.1454 171.7660 0007878 161.3002 198.8490 14.62517996137142
IO-117
1 53106U 22080B   25027.56054429 -.00000003  00000-0  00000+0 0  9991
2 53106  70.1423 114.5706 0008128  54.9517 305.1905  6.42557612 59687
FO-118
1 54684U 22167C   25028.79611260  .00263784  00000-0  18356-2 0  9999
2 54684  97.6097 190.5977 0004839 356.2165   3.9061 15.73597289119148
SO-120
1 56992U 23084BU  25028.82822423  .00699695  00000-0  26588-2 0  9991
2 56992  97.5256 162.9917 0010143 295.8900  64.1324 15.85863576 91042
UmKA 1 (RS40S)
1 57172U 23091G   25028.77030405  .00010604  00000-0  60604-3 0  9990
2 57172  97.5802  84.9226 0016456  70.8614 289.4396 15.12762860 87536
CubeBel-2 (EU11S)
1 57175U 23091K   25028.82224644  .00015162  00000-0  80406-3 0  9995
2 57175  97.5805  85.4562 0014576  80.1783 280.1094 15.15371281 87576
VERONIKA
1 58261U 23174F   25028.77253310  .00063979  00000-0  14785-2 0  9995
2 58261  97.4329 110.1023 0007746 161.3572 198.7961 15.42256954 68205
KAFASAT
1 58317U 23174BP  25028.46430125  .00145768  00000-0  19101-2 0  9998
2 58317  97.4227 112.6112 0003917 135.9130 224.2438 15.58072402 68365
ENSO
1 58470U 23185J   25028.82366789  .00046624  00000-0  11588-2 0  9996
2 58470  97.3948 101.1973 0008774 192.4930 167.6100 15.40127517 64657
EIRSAT-1
1 58472U 23185L   25028.81920099  .00058520  00000-0  12924-2 0  9990
2 58472  97.3941 101.7736 0007994 193.2047 166.8993 15.43635508 64698
SONATE-2
1 59112U 24043Q   25028.28457976  .00024925  00000-0  88454-3 0  9990
2 59112  97.4960 157.6067 0011649 222.5029 137.5310 15.28982766 50076
MO-122
1 60209U 24125G   25028.52006143  .00025346  00000-0  88867-3 0  9999
2 60209  97.2948 242.0764 0020297 250.1344 109.7709 15.29237230 31722
GRBBeta
1 60237U 24128C   25028.83040504  .00007361  00000-0  58652-3 0  9992
2 60237  61.9918 178.2681 0037876  26.4606 333.8407 15.00602270 30411
Curium One
1 60242U 24128H   25028.83050306  .00011788  00000-0  90184-3 0  9993
2 60242  61.9824 178.0400 0037961  20.5722 339.6887 15.01723257 30426
ROBUSTA-3A
1 60243U 24128J   25027.66557668  .00009748  00000-0  75766-3 0  9999
2 60243  61.9887 182.5292 0035843  18.1889 342.0473 15.01334723 30244
CatSat
1 60246U 24125J   25028.52266506  .00016673  00000-0  62327-3 0  9997
2 60246  97.2739 242.5308 0045358 202.0861 157.8425 15.26428137 29816
AO-123
1 61781U 24199AY  25028.80042308  .00013826  00000-0  55014-3 0  9998
2 61781  97.3757 258.2909 0015797 308.8715  51.1113 15.25266044 56771
POEM 4 (BGS ARPIT)
1 62461U 24253C   25028.67820546  .00117641  00000-0  68613-3 0  9997
2 62461  55.2212 117.4007 0009629   4.3445 355.7685 15.77581990  4559
